{"data":{"norad_id":61957,"intl_designator":"2024-209U","name":"STARLINK-32359","alt_names":[],"object_type":"PAYLOAD","status":"ACTIVE","operator":null,"country":"US","launch_date":"2024-11-14","launch_site_code":"AFWTR","launch_vehicle":null,"mission":null,"orbit_class":"UNKNOWN","rcs_meters":null,"size_class":null,"mass_kg":null,"dimensions":null,"purposes":["comms"],"wikipedia_slug":null,"has_3d_model":false,"image_url":null,"decayed_at":null,"tle_current":{"epoch":"2026-05-24T17:28:02.983584Z","epoch_age_seconds":109309,"freshness":"FRESH","line1":"1 61957U 24209U   26144.72781231  .00035278  00000+0  81568-3 0  9998","line2":"2 61957  53.1589 146.7285 0001219  99.7946 260.3198 15.42186437 86599","mean_motion":15.42186437,"eccentricity":0.0001219,"inclination_deg":53.1589,"raan_deg":146.7285,"arg_perigee_deg":99.7946,"mean_anomaly_deg":260.3198,"bstar":0.00081568,"rev_number":8659,"period_min":93.37392454321,"perigee_km":438.82664717128,"apogee_km":440.488825528,"semimajor_km":6817.7947363496,"source":"CELESTRAK","updated_at":"2026-05-25T13:38:19.490100Z"}}}